CAPE
3 2 3 1 1 0 0 0 0 0 0 1 0 2 1 1 2 2 1 0 0 0 0 0 0 0 0 0 0 0 0 0 0 0 1 2 1 2
0 2 2 2 2 1 0 0 0 0 0 1 1 3 1 1 2 1 1 0 0 0 0 0 0 0 0 0 0 0 0 0 0 0 2 2 3 5
1 1 1 2 3 2 1 0 1 0 0 2 1 2 1 0 2 1 2 2 1 0 0 0 0 0 0 0 0 0 0 0 0 1 2 3 13 25
3 2 1 1 1 2 1 2 1 0 0 0 2 2 1 1 2 1 1 2 2 1 0 0 0 0 0 0 0 0 0 0 0 2 2 5 9 9
0 1 2 2 2 1 0 1 1 0 0 0 2 2 2 2 2 2 2 1 2 2 0 0 0 0 0 0 0 0 0 0 0 0 1 1 1 2
3 3 2 2 2 1 0 0 0 1 1 1 2 2 2 1 1 1 1 2 2 2 0 0 0 0 0 0 0 0 0 0 0 0 0 0 0 0
2 2 2 0 1 0 0 0 0 0 1 2 4 3 2 2 0 1 2 0 1 2 1 0 0 2 2 0 0 0 0 0 0 0 0 0 0 0
1 1 0 0 0 0 0 0 0 1 2 4 3 2 2 3 1 2 1 1 2 2 1 0 0 0 0 0 0 0 0 0 0 0 0 0 0 0
1 1 0 0 0 0 0 0 0 0 0 0 1 2 3 1 2 2 1 1 2 1 0 1 3 2 1 0 0 0 0 0 0 0 1 0 0 0
0 0 1 1 0 0 0 0 0 0 0 0 0 0 0 1 0 0 1 1 1 1 1 1 5 0 0 0 0 0 0 0 0 0 0 0 0 1
0 0 0 0 0 0 0 0 0 0 0 0 1 0 0 1 0 1 2 1 2 1 1 0 0 0 0 0 0 0 0 0 0 0 0 0 0 1
0 0 0 0 1 0 1 0 1 0 0 0 2 0 0 0 0 0 0 1 2 1 0 0 1 0 0 1 1 0 0 0 0 0 0 0 0 2
0 0 0 0 0 1 1 1 1 0 0 0 0 0 0 0 0 0 0 0 2 2 0 0 0 0 0 1 1 1 0 0 0 0 0 1 2 2
0 0 0 0 0 0 1 1 0 0 0 0 0 1 1 0 0 0 0 0 0 0 1 0 0 0 0 1 1 1 2 0 1 1 0 1 3 0
0 0 0 0 0 0 1 0 0 0 1 1 1 1 1 0 0 0 0 0 0 0 0 0 0 1 0 1 1 1 1 2 0 5 17 1 2 1
0 0 0 0 0 0 2 1 1 1 1 1 1 1 0 0 0 1 0 1 0 1 1 0 0 0 1 0 0 0 0 1 0 0 5 10 5 4
0 0 0 0 0 2 2 2 1 1 0 0 1 2 2 1 1 2 1 2 0 3 1 0 3 6 3 0 1 0 0 3 1 0 1 4 9 7
0 0 1 0 2 1 4 4 1 1 1 0 1 2 1 1 2 1 1 1 2 3 3 1 0 0 0 0 0 0 0 6 0 0 4 4 4 5
1 1 1 1 1 2 2 2 3 2 1 0 1 1 2 1 1 1 1 1 1 1 2 2 0 1 2 0 0 0 0 5 0 2 3 4 3 1
1 0 1 1 2 2 2 1 1 1 0 0 0 0 1 1 1 1 1 1 1 0 1 1 0 0 0 1 1 0 0 2 0 0 0 2 0 0
4 0 1 0 0 1 1 1 1 1 0 0 0 0 1 0 0 0 0 0 0 1 1 1 0 0 0 2 0 0 0 0 1 0 1 0 0 0
1 2 0 0 0 1 1 1 2 0 0 0 0 0 1 1 1 1 2 1 1 0 0 0 0 0 0 0 2 1 0 0 0 0 0 0 0 1
1 1 0 0 0 1 1 2 2 0 0 0 0 0 1 2 1 1 1 1 3 4 0 0 0 0 0 0 0 0 0 0 0 0 0 0 0 0
CIN
0 -0 0 0 0 0 0 0 0 0 0 0 0 0 0 0 0 0 0 0 0 0 0 0 0 0 0 0 0 0 0 0 0 -0 0 -0 -0 -0
0 0 0 0 0 0 0 0 0 0 0 0 0 0 0 0 0 0 0 0 0 0 0 0 0 0 0 0 0 0 0 0 0 0 -0 -0 -0 -0
0 -0 -0 0 0 0 0 0 0 0 0 0 0 0 0 0 0 0 0 0 0 0 0 0 0 0 0 0 0 0 0 0 -0 -0 -0 -0 -0 -0
0 0 0 0 0 0 0 0 0 0 0 0 0 0 0 0 0 0 0 0 0 0 0 0 0 0 0 0 0 0 0 -0 -0 -0 -0 -0 -0 -0
0 0 0 0 0 0 0 0 0 0 0 0 0 0 0 0 0 0 0 0 0 0 0 0 0 0 0 0 0 0 0 0 0 -0 0 0 -0 0
0 0 0 0 0 0 0 0 0 0 0 0 0 0 0 0 0 0 0 0 0 0 0 0 0 0 -0 -0 0 0 0 0 0 0 0 0 0 -0
0 0 0 0 0 0 0 0 0 0 0 0 0 0 0 0 0 0 0 0 0 0 0 0 0 -0 -0 -0 0 0 0 0 0 0 0 0 0 0
0 0 0 0 0 0 0 0 0 0 0 0 0 0 0 0 0 0 0 0 0 0 0 0 0 0 -0 0 0 0 0 0 -0 -0 0 0 0 -0
0 0 0 0 0 0 0 0 0 0 0 0 0 0 0 0 0 0 0 0 0 0 0 0 -0 -0 -0 0 0 0 0 0 0 0 -0 0 0 0
0 0 0 0 0 0 0 0 0 0 0 0 0 0 0 0 0 0 0 0 0 0 -0 0 0 -0 -0 0 0 0 0 0 0 0 -0 -0 -0 0
0 0 0 0 0 0 0 0 0 0 0 0 0 0 0 0 0 0 0 0 0 0 -0 0 0 0 -0 0 0 0 0 0 0 0 0 0 0 -0
0 0 0 0 0 0 0 0 0 0 0 0 -10 0 0 0 0 0 0 0 0 0 0 0 0 0 0 0 0 0 -0 0 0 0 0 0 -0 -0
0 0 0 0 0 0 0 0 0 0 0 0 0 0 0 0 0 -0 -0 0 0 0 0 0 0 0 0 0 0 0 -0 0 -0 0 0 -0 -0 -0
0 0 0 0 0 0 0 0 0 0 0 0 0 0 0 0 0 0 0 0 0 0 0 0 0 0 0 0 0 0 0 0 -0 -0 -1 -1 -0 -0
0 0 0 0 0 0 0 0 0 0 0 0 0 0 0 0 0 0 0 0 0 0 0 -3 0 -0 -1 -0 -0 0 0 0 -2 -0 0 -0 -0 -0
0 0 0 0 0 0 0 0 0 0 0 0 0 0 0 0 0 0 0 0 0 0 0 -0 0 -1 -1 -1 0 -0 -0 -0 -0 -0 -1 0 -0 -0
-0 0 0 0 0 0 0 0 0 0 0 0 0 0 0 0 0 0 0 0 0 0 0 0 -0 0 -1 0 0 0 -0 0 0 0 -2 -1 -0 -0
0 0 0 0 0 0 0 0 0 0 0 0 0 0 0 0 0 0 0 0 0 0 0 0 -0 0 0 -0 0 0 -3 -0 0 -0 -1 -0 -1 -0
0 0 0 0 0 0 0 0 0 0 0 0 0 0 0 0 0 0 0 0 0 0 0 0 0 0 0 0 0 0 -0 -1 -0 -2 -2 -0 -1 -2
0 0 0 0 0 0 0 0 0 0 0 0 0 0 0 0 0 0 0 0 0 0 0 0 0 -0 0 0 0 0 0 -1 0 0 -3 -1 0 0
0 -0 0 0 0 0 0 0 0 0 0 0 0 0 0 0 0 0 0 -0 -0 0 0 0 0 0 0 -3 0 0 0 0 0 -0 -1 -1 -3 0
0 -0 0 0 0 0 0 0 0 0 0 0 0 0 0 -0 0 0 -0 0 -0 -0 -0 0 0 0 0 0 -0 -2 -1 0 0 0 0 0 -0 -1
-0 -0 0 0 0 0 0 0 0 0 0 0 0 0 -0 -0 -0 -0 -0 -0 -0 -0 -0 -0 0 0 0 0 -0 0 0 0 0 0 0 0 0 0
Wind_Speed
22 22 24 24 26 25 26 26 30 36 34 27 23 18 16 12 13 13 12 9 4 4 6 5 5 8 10 11 12 13 15 18 19 21 23 24 25 27
25 25 27 27 26 24 25 26 28 30 36 26 23 18 15 13 13 15 12 9 6 6 5 4 7 7 9 11 12 14 17 19 20 22 23 24 25 26
26 28 31 30 28 26 27 26 26 25 30 25 18 16 15 15 14 13 11 10 8 7 4 3 5 7 9 11 13 15 17 20 22 23 23 24 24 24
28 30 30 30 28 28 26 25 24 23 24 26 19 17 17 14 14 12 11 7 8 7 4 3 4 6 8 11 13 15 18 20 22 22 23 23 23 23
31 32 30 30 31 28 26 25 24 24 19 19 22 19 18 17 17 16 12 9 9 6 3 3 5 6 9 10 12 15 18 20 21 22 22 22 22 22
33 33 34 31 29 27 25 25 23 20 20 21 22 19 17 16 16 17 15 12 10 6 5 5 4 7 7 9 13 16 18 19 20 20 19 19 19 19
32 31 31 29 28 28 27 24 23 23 21 19 19 16 16 17 17 16 15 12 10 9 7 4 5 5 6 9 12 15 16 16 18 18 18 18 18 18
35 32 30 31 31 29 28 27 25 24 23 23 21 18 18 16 14 15 15 13 11 9 6 3 3 5 7 8 10 11 12 14 15 16 17 18 18 18
34 34 33 30 29 30 31 31 29 27 28 28 26 24 21 18 16 16 14 13 9 7 4 5 5 6 7 7 7 9 10 11 13 15 15 16 16 17
33 34 33 33 31 30 30 29 28 30 33 28 23 19 16 16 18 17 16 11 5 7 4 8 4 7 5 6 6 7 8 10 12 12 12 13 14 14
33 33 33 33 31 28 26 28 27 28 29 26 26 18 18 18 14 13 14 11 8 7 6 9 7 6 6 5 6 6 7 8 10 11 11 11 11 12
34 32 29 28 28 25 23 24 25 29 26 25 25 15 15 18 17 16 17 14 9 7 5 9 3 4 7 4 3 4 5 7 9 9 9 9 8 9
35 32 29 27 25 24 24 24 28 24 25 28 25 21 15 19 16 15 16 14 11 15 5 5 3 2 6 6 2 3 3 5 8 8 7 7 6 7
35 30 28 25 26 27 25 26 20 18 22 26 20 21 20 21 17 14 14 14 14 10 6 2 4 6 2 3 4 3 4 5 6 6 7 8 8 7
29 29 29 30 29 26 20 22 19 19 18 24 18 18 24 18 16 14 14 11 9 6 5 2 2 9 3 2 3 3 4 4 5 6 7 8 8 8
29 29 32 30 26 26 22 18 19 18 13 24 21 20 21 19 16 16 14 12 11 11 3 2 4 9 4 2 2 3 4 5 5 4 5 6 7 8
34 31 31 29 27 25 24 19 18 18 15 22 23 22 23 21 18 15 15 13 15 9 6 2 2 3 3 2 4 2 3 3 4 3 4 4 5 5
35 31 28 29 27 24 22 21 20 18 18 27 29 25 23 21 18 16 15 15 13 10 6 5 4 2 4 7 7 1 2 3 4 3 3 3 3 4
35 34 30 27 26 25 22 21 19 20 20 31 30 27 24 22 19 19 17 17 13 9 6 6 8 7 5 5 6 5 0 1 3 3 3 3 3 3
36 35 32 29 27 25 23 21 17 19 27 31 31 30 26 24 20 21 18 18 13 9 7 7 9 9 6 5 6 3 7 4 4 2 2 2 7 10
37 35 30 29 26 24 22 19 15 25 33 33 35 33 28 23 19 19 22 18 13 9 9 9 9 10 6 7 8 3 4 3 3 2 3 3 2 3
35 33 30 28 24 22 20 15 21 37 36 35 33 31 26 21 19 24 24 18 14 10 8 7 10 11 9 7 4 5 2 4 3 4 6 2 1 2
30 29 26 25 22 21 18 16 34 37 35 34 31 31 26 21 23 24 21 16 14 13 10 9 9 9 8 7 5 5 4 3 5 4 4 4 5 8
Wind_Direction
310 308 306 307 304 302 300 300 301 304 303 305 304 288 284 272 249 250 259 253 271 247 268 315 358 347 344 348 355 2 349 345 343 339 338 338 338 337
312 311 309 310 308 305 303 303 302 302 304 306 299 299 277 266 257 261 256 249 240 227 256 295 329 348 356 354 6 358 347 345 342 341 340 339 336 336
312 310 310 309 310 308 306 304 302 301 300 310 305 301 283 266 254 257 247 248 235 229 222 288 327 359 354 2 359 354 351 349 344 344 342 341 341 341
314 312 310 309 308 308 307 305 304 301 302 305 309 300 289 275 259 246 243 245 251 242 258 310 352 357 5 2 356 354 355 349 345 344 345 345 346 345
313 309 309 308 305 304 304 304 305 306 300 300 302 295 281 263 256 256 249 241 248 227 267 317 342 353 350 359 3 358 354 355 350 349 351 350 350 351
312 311 309 308 306 306 304 303 303 298 295 296 299 293 280 272 251 240 240 241 222 247 265 299 340 349 1 4 354 356 358 357 359 360 0 1 0 360
314 312 310 309 307 305 305 303 300 297 293 292 294 286 280 261 242 243 235 224 240 248 264 296 333 357 359 359 0 3 6 11 14 14 13 14 16 12
312 313 311 307 304 302 300 296 294 292 286 286 282 266 263 254 244 206 204 214 242 255 257 283 328 341 345 0 10 18 20 22 21 22 21 22 22 21
313 313 310 308 305 302 302 299 294 285 283 278 273 267 259 235 217 200 201 207 230 193 214 287 307 333 358 18 40 32 31 30 24 22 23 29 34 37
313 312 311 309 305 303 301 297 294 292 288 282 271 257 236 213 198 199 194 204 218 186 197 300 312 330 15 23 42 43 48 33 25 30 35 31 31 36
312 311 310 308 306 304 302 297 293 291 287 283 281 266 258 229 206 200 203 204 215 209 238 301 303 323 358 30 42 59 46 34 34 32 33 31 27 24
312 311 310 308 307 305 300 301 298 288 281 280 274 266 252 231 205 200 192 204 210 270 255 294 270 311 336 11 48 62 27 30 22 25 26 31 39 36
310 312 313 312 308 304 301 301 298 300 284 275 273 262 247 232 221 212 203 204 211 279 228 292 221 233 348 3 47 100 52 29 20 35 46 60 83 97
309 310 311 310 309 305 303 303 302 299 291 276 266 248 235 231 225 213 220 235 256 273 180 232 285 172 347 20 30 97 109 69 65 65 72 63 81 78
309 307 305 305 304 302 302 302 296 297 291 267 256 238 234 228 222 219 231 236 258 270 172 208 158 159 163 2 18 53 97 86 92 95 76 87 103 116
311 307 303 302 302 300 300 297 295 289 277 264 252 239 230 222 217 222 221 232 249 267 185 252 137 161 164 326 18 34 105 34 117 105 86 91 99 105
308 306 301 298 297 297 296 292 293 287 275 263 247 238 224 222 224 216 227 229 250 244 232 190 145 177 291 288 316 10 107 57 63 97 89 96 99 100
301 300 299 295 291 291 290 288 287 282 272 255 245 236 221 219 216 218 225 234 242 239 215 189 181 205 291 295 309 352 66 26 34 86 87 94 85 80
296 294 291 291 289 286 285 284 280 276 266 247 241 232 223 222 214 221 224 233 240 227 211 186 181 185 208 255 286 302 55 53 56 84 107 116 48 76
294 291 289 286 282 280 280 281 280 269 255 244 236 230 224 221 216 223 223 229 230 220 200 194 186 186 204 213 288 236 165 144 132 87 119 119 3 3
297 290 285 282 277 275 274 274 266 259 246 240 230 227 224 220 210 217 227 226 218 209 198 192 190 184 194 284 286 279 186 192 331 118 110 122 53 25
299 292 283 278 273 266 267 263 266 244 242 235 227 225 224 218 208 224 226 220 210 208 195 183 167 171 192 246 250 275 280 210 297 333 345 357 59 10
301 295 286 277 269 261 258 258 252 242 241 233 224 223 220 213 220 224 224 218 201 183 180 172 160 167 197 251 262 275 262 231 188 191 192 340 348 354